RH
40 40 39 37 36 33 30 26 21 18 18 20 22 21 19 18 22 29 33 35 35 34 32 32 33 37 39 40 42 41 40 40 42 43 43 38 30 27 29 33 35 36 38 43 43 38 37 35 33 34 34 31 31 34 34 32 32 32 31 32 33 33 32 32 33 32 30 30 29 28 26 25 25 21 18 20 22 28 37 45 49 48 45 46 49
40 41 41 40 38 37 35 33 29 24 20 18 20 21 21 18 18 21 27 31 34 34 33 33 33 34 36 38 39 40 41 42 41 40 42 44 39 31 26 27 31 33 34 38 42 41 39 37 36 37 37 35 34 36 36 34 34 33 32 32 32 32 32 32 32 30 29 29 28 27 25 25 25 20 18 21 23 27 35 43 47 46 43 45 47
43 42 42 41 40 39 39 37 35 31 26 21 19 19 20 20 19 18 20 25 29 31 32 32 32 33 34 35 35 35 37 39 41 40 39 41 43 40 34 29 28 30 30 33 37 41 41 39 40 40 38 36 34 35 36 35 35 34 34 33 33 33 33 31 30 29 30 30 28 27 26 25 24 20 18 21 23 27 35 42 46 44 42 43 44
46 44 41 41 42 41 40 39 39 37 32 27 23 20 19 19 20 19 18 19 22 26 28 28 29 29 30 31 32 32 32 33 36 40 40 40 40 42 41 38 36 33 31 32 33 35 38 40 43 43 40 38 35 34 34 34 35 35 34 34 34 34 33 30 30 30 30 30 29 28 26 26 24 20 19 21 22 27 36 42 44 40 40 42 42
48 46 41 41 42 43 41 38 37 36 34 31 27 24 22 19 19 19 18 18 19 20 22 24 25 25 25 26 28 29 30 29 30 33 38 40 40 40 41 41 42 40 37 36 35 34 33 36 41 43 42 41 39 36 35 35 35 35 36 36 35 35 33 32 31 30 29 29 29 30 28 26 23 20 21 22 22 27 35 39 41 40 40 40 39
52 50 46 42 39 40 40 38 34 32 32 32 31 28 26 23 21 19 18 18 18 18 19 20 21 22 22 23 24 25 27 28 27 27 31 36 38 40 41 41 42 44 42 41 39 38 35 33 35 37 38 40 42 40 39 38 37 37 37 38 37 36 34 33 31 30 28 27 27 29 29 26 22 21 22 21 22 28 33 34 37 41 40 37 36
57 54 50 45 40 38 37 35 33 31 30 31 32 32 30 27 25 22 20 19 18 18 18 18 19 19 20 21 21 23 25 26 26 26 27 30 34 37 40 41 42 44 44 42 40 39 39 38 37 36 34 34 37 39 39 39 38 37 37 36 36 34 32 30 29 28 27 26 26 27 28 24 20 21 22 20 21 30 36 36 35 36 38 38 36
61 59 55 50 44 38 37 37 36 36 35 34 35 35 34 32 30 27 25 22 19 19 19 18 19 19 19 20 21 22 23 24 24 25 26 28 31 34 36 38 40 41 42 41 39 37 37 39 41 41 38 35 35 36 36 36 36 35 34 33 32 30 29 28 28 27 26 26 26 25 26 24 19 20 21 20 21 27 33 38 37 35 35 39 40
72 68 63 58 53 47 43 41 41 40 39 38 36 35 35 35 35 33 31 27 24 23 22 21 20 20 19 20 20 21 22 23 24 24 25 26 28 31 35 37 37 37 37 38 38 36 34 33 34 36 37 38 38 37 37 36 35 34 32 32 31 29 28 27 27 27 26 26 25 25 25 23 19 19 20 19 22 25 29 34 35 33 31 33 38
83 83 76 66 61 58 51 45 42 40 39 37 34 32 33 34 36 36 34 32 30 28 27 26 24 22 21 21 21 22 22 22 23 24 24 25 25 27 31 35 38 38 37 35 35 35 33 29 27 27 27 28 29 31 33 34 34 34 34 34 33 31 30 28 27 27 26 26 26 25 25 22 18 18 19 19 21 23 27 30 31 29 26 23 27
71 76 78 75 71 68 64 57 50 45 42 40 38 35 33 32 33 34 35 34 33 32 31 29 27 25 24 24 23 23 22 22 23 24 24 25 24 24 25 29 33 36 38 37 35 34 33 30 27 25 23 22 21 20 20 21 23 26 28 30 32 32 31 30 30 29 28 27 27 25 25 22 18 17 18 19 21 22 24 28 28 27 25 20 20
68 61 65 75 79 78 77 73 65 58 52 48 45 41 38 36 33 32 33 33 33 33 32 30 28 28 27 26 25 23 22 23 24 25 25 25 25 24 23 23 26 28 31 33 34 34 33 31 29 28 26 23 21 17 13 12 12 13 15 18 20 23 25 26 27 28 28 27 26 25 25 23 19 17 17 18 20 21 22 25 27 26 23 20 19
80 70 58 59 66 73 80 82 78 73 66 56 50 48 45 41 36 31 30 31 32 32 31 29 29 28 27 26 24 23 22 23 25 26 27 27 26 25 23 22 22 23 23 25 27 29 29 30 30 29 28 26 23 18 12 9 9 9 9 9 10 12 14 17 19 22 23 24 23 23 24 23 18 16 17 19 19 20 21 24 27 25 22 20 19
75 77 66 53 51 59 70 78 78 78 75 65 55 52 49 45 42 37 33 32 31 29 28 28 28 28 28 26 25 24 23 24 26 28 28 29 29 26 24 23 22 22 22 21 22 23 24 25 26 26 27 27 24 20 14 10 9 9 8 8 8 9 9 10 12 15 17 19 19 20 23 24 19 15 17 19 19 19 20 23 25 24 23 20 18
64 69 66 56 51 52 56 61 65 69 73 70 58 50 48 48 46 42 38 34 30 27 26 26 26 26 26 26 25 24 23 23 25 28 28 30 31 30 27 24 23 23 22 21 20 21 22 22 22 22 23 23 22 20 15 10 8 8 8 8 8 10 10 11 11 12 14 15 15 17 21 22 19 15 17 19 19 19 20 22 23 23 23 21 17
63 61 56 50 52 55 54 52 52 54 60 62 56 50 50 50 47 43 41 37 32 28 25 24 23 24 24 25 24 21 20 21 23 25 27 30 32 32 30 27 25 24 23 22 21 19 19 19 19 19 19 19 19 18 16 11 8 7 7 7 8 9 11 12 13 13 13 13 13 15 19 20 17 15 17 19 19 18 19 20 21 21 22 20 16
65 61 54 50 52 57 58 58 57 54 53 53 54 55 56 54 51 48 45 40 34 29 25 22 21 22 22 22 22 19 17 18 20 22 25 28 31 33 33 30 26 23 22 21 21 19 18 17 17 17 17 16 17 17 16 13 9 7 7 7 7 8 9 12 15 16 14 13 13 13 15 17 15 14 17 19 18 18 19 19 19 19 19 18 15
69 61 54 51 51 54 59 66 68 63 54 51 53 57 59 58 55 53 52 47 40 34 29 26 23 21 21 20 20 19 18 18 19 19 21 25 29 33 35 35 31 26 22 20 20 19 18 17 16 15 15 14 15 17 16 13 10 8 7 7 7 7 7 10 13 16 16 14 13 12 13 13 13 13 17 19 18 18 18 18 18 18 17 16 15
70 61 53 48 48 53 58 61 62 58 52 52 55 58 60 59 55 53 54 54 51 46 38 30 25 22 21 20 20 19 18 18 18 18 19 21 25 29 34 37 35 30 24 20 18 17 17 17 16 13 12 13 14 15 15 14 11 9 9 9 8 7 7 9 11 14 16 15 13 11 10 11 12 12 15 17 18 18 18 18 18 17 16 15 15
66 61 55 48 48 54 59 57 54 50 47 52 59 60 60 59 55 51 50 53 58 56 44 32 27 24 23 22 22 21 20 19 19 18 18 18 20 24 31 34 34 31 25 19 17 18 18 17 15 12 11 12 14 14 14 14 12 11 11 11 10 8 8 9 10 12 13 14 13 11 10 10 11 11 13 15 16 17 17 17 17 16 15 14 13
64 62 57 51 49 54 60 61 58 52 46 47 55 60 58 56 55 50 48 52 57 56 45 34 29 27 25 26 25 24 23 23 21 20 18 17 17 19 24 28 31 31 27 21 18 18 18 17 15 13 12 12 13 14 14 14 14 14 13 12 12 11 11 10 10 10 11 11 11 10 10 9 10 10 11 13 15 15 16 16 15 15 14 12 12
66 62 61 59 56 55 58 62 63 60 54 49 51 55 54 53 53 51 50 53 57 55 45 37 33 30 29 29 29 28 27 27 26 24 21 19 18 18 18 21 25 28 28 24 20 17 15 15 15 15 14 13 13 14 15 16 16 16 15 14 13 13 12 10 9 9 8 8 9 10 9 9 9 11 11 12 14 15 15 15 14 13 11 11 11
73 67 68 67 63 59 60 66 68 64 60 56 54 55 53 51 51 51 50 53 57 56 48 40 36 33 32 32 32 32 31 30 30 29 26 23 22 20 18 18 20 23 23 22 21 19 16 15 14 14 15 14 15 16 16 17 18 17 17 16 14 13 12 10 8 7 7 7 7 8 8 9 10 11 12 13 14 14 13 12 11 11 10 10 11
72 68 71 72 70 67 67 72 73 70 69 68 66 67 64 56 50 49 50 50 54 55 52 46 42 38 37 36 35 35 35 35 34 33 31 29 27 24 23 22 21 21 19 17 18 18 16 15 14 14 15 14 15 16 17 17 17 17 17 16 14 12 10 9 8 7 6 6 6 7 8 9 9 10 11 11 11 10 10 10 10 10 11 11 11
62 61 63 67 71 72 71 73 74 72 71 70 70 74 76 69 58 51 49 49 50 51 50 48 46 44 42 40 39 39 39 38 38 37 35 33 31 29 27 25 24 23 20 16 16 17 17 16 16 16 16 15 15 16 16 15 15 14 14 14 13 11 10 9 7 6 5 5 5 6 6 7 8 9 9 8 8 9 9 10 11 12 12 10 10
50 51 50 55 61 65 67 69 70 70 67 63 60 60 63 67 65 59 53 50 50 51 50 48 47 46 46 45 43 43 43 42 41 40 38 35 33 31 29 27 26 26 23 18 17 18 17 16 16 17 17 17 17 17 16 14 14 13 12 11 11 11 10 9 8 7 7 6 6 7 8 9 10 10 9 9 9 10 11 12 12 11 11 12 16
37 39 39 41 46 50 53 56 57 59 58 56 53 50 49 54 60 60 55 49 47 49 50 48 47 46 45 46 46 45 44 44 43 42 39 36 34 33 32 28 26 25 23 18 16 17 16 14 15 15 16 17 17 16 15 13 12 11 10 9 10 10 11 11 11 10 9 9 10 11 11 12 13 13 13 12 12 12 13 12 11 12 17 26 35
29 31 31 31 33 37 43 47 46 45 47 48 49 48 47 48 50 52 51 49 47 49 51 49 46 43 43 46 48 47 45 43 42 42 42 42 41 40 37 31 26 24 22 18 18 20 20 17 16 15 15 15 15 14 13 12 11 10 9 10 10 10 11 12 11 12 12 12 12 13 14 15 15 14 13 13 13 12 12 13 18 27 37 45 51
26 27 27 26 27 29 36 40 38 35 38 41 44 45 46 44 43 43 45 47 49 51 52 50 45 43 43 46 47 47 44 41 40 42 44 46 47 46 43 39 34 28 24 25 29 30 27 23 21 19 18 15 14 14 13 12 11 10 10 10 11 11 12 12 12 12 12 13 13 14 15 14 14 14 14 13 13 14 19 28 40 50 55 57 58
24 25 25 25 25 24 27 29 28 26 28 31 34 37 38 37 37 36 36 40 46 50 51 48 44 44 45 42 41 41 39 39 43 45 44 43 45 47 48 48 45 37 32 35 39 36 30 26 25 25 26 24 22 22 20 18 16 14 13 13 13 13 13 13 13 13 13 14 14 14 15 15 14 14 13 15 21 29 40 52 61 62 60 60 60
25 24 23 23 24 24 23 23 23 23 23 23 24 26 26 27 27 27 29 32 36 40 40 39 40 42 39 35 35 36 36 39 45 45 43 42 43 46 49 52 52 48 45 47 45 37 31 28 26 27 30 33 33 31 28 25 23 20 18 16 14 14 14 13 13 13 13 14 14 14 15 14 14 16 22 34 47 57 62 66 67 62 60 62 61
25 25 23 20 21 23 23 22 22 21 20 21 21 20 21 20 19 20 22 24 27 31 33 34 35 35 32 31 34 35 36 41 45 45 45 44 43 44 48 52 55 56 57 56 48 39 34 32 29 26 27 31 35 37 35 31 27 25 23 21 18 17 16 14 15 16 14 13 14 14 14 16 24 38 53 64 73 76 73 69 67 63 61 61 59
21 26 27 21 17 20 21 21 22 21 19 20 20 19 20 19 18 18 19 19 22 27 31 33 33 31 32 34 35 35 37 40 43 43 44 44 44 45 46 49 54 58 58 52 43 37 36 36 32 28 26 26 32 37 36 33 29 27 26 25 23 24 23 22 21 18 14 12 12 12 19 36 55 72 80 81 83 84 77 69 65 63 61 62 65
16 23 31 26 18 18 19 18 20 21 20 19 19 19 19 19 18 18 18 18 19 20 22 25 27 28 31 35 39 42 44 43 42 42 42 41 42 45 46 48 52 55 52 44 38 36 38 39 36 33 29 27 31 34 33 30 28 27 28 30 34 39 43 42 35 27 21 21 19 18 30 50 67 80 88 90 88 84 74 66 62 60 63 71 77
12 17 30 31 22 18 17 17 18 18 19 19 18 18 18 18 18 18 17 18 21 21 21 22 23 24 27 33 42 51 58 56 50 47 48 49 48 47 47 48 50 51 48 42 38 37 39 41 41 35 31 31 33 31 27 25 25 27 31 37 46 53 55 52 46 39 36 35 34 33 37 44 52 66 80 85 82 77 71 67 65 64 68 76 81
10 11 23 32 28 20 18 17 17 16 17 18 18 18 17 17 18 18 17 17 18 19 23 29 33 32 32 35 42 51 60 64 59 54 57 65 67 62 54 47 48 51 51 45 41 40 40 43 44 39 35 37 38 30 23 22 26 30 37 47 58 65 63 55 48 44 42 42 41 42 46 48 52 61 71 77 80 81 77 73 70 69 71 76 78
9 8 18 29 31 24 19 17 17 16 16 16 16 17 17 17 17 17 17 17 17 17 21 28 34 35 35 38 45 51 55 61 64 61 61 65 69 68 62 51 48 52 54 50 48 45 42 44 47 43 39 42 42 33 25 25 30 38 46 56 67 73 69 59 52 51 50 47 42 40 46 54 60 64 70 77 82 79 73 68 65 66 69 73 76
7 7 14 26 32 28 22 18 16 16 16 15 15 15 15 16 17 16 16 16 17 19 21 24 28 31 31 33 42 51 55 59 62 60 56 55 55 59 61 56 50 51 55 55 54 50 46 47 48 44 40 41 39 31 26 31 39 46 52 60 68 72 68 59 55 57 58 55 49 47 52 61 64 62 63 67 68 64 61 60 61 64 68 72 77
8 8 13 23 30 30 25 20 16 16 16 15 14 14 14 15 16 16 16 16 15 16 18 19 23 29 30 31 38 47 53 56 56 53 52 50 48 51 57 59 54 52 55 58 58 54 50 48 45 41 37 36 32 28 29 37 43 47 53 62 68 68 65 60 57 58 61 65 68 68 69 69 65 57 55 59 61 64 66 67 68 70 74 78 82
11 10 14 21 27 30 27 21 17 16 16 15 14 14 13 13 13 15 16 15 15 15 13 14 19 26 30 34 39 45 48 52 55 55 54 52 49 50 56 60 56 53 56 58 55 50 46 42 36 32 31 31 32 32 33 38 41 44 51 60 64 64 65 65 63 64 69 74 74 71 70 70 66 63 64 67 68 70 75 77 76 78 81 82 81
14 14 15 18 21 24 25 23 19 17 16 15 14 13 13 12 13 15 15 13 13 14 11 12 22 33 35 35 41 47 50 53 57 60 59 52 48 50 55 57 56 55 55 52 44 37 34 32 29 27 30 33 34 33 33 38 44 47 51 59 66 69 70 71 72 76 79 73 62 59 63 67 67 67 71 72 70 70 75 78 79 80 79 77 75
16 16 17 19 19 19 20 21 21 20 18 16 15 15 16 16 15 15 15 14 13 13 12 16 27 38 40 38 42 50 55 55 57 64 64 54 46 49 54 54 54 55 52 46 38 33 31 31 30 31 33 34 34 37 42 47 53 58 60 65 71 72 73 78 83 84 76 61 47 46 54 60 63 67 71 71 71 74 77 76 73 70 69 69 71
29 22 20 23 26 28 27 26 26 25 23 24 25 25 23 20 17 16 17 15 13 13 14 17 26 36 41 43 47 52 57 58 60 67 68 56 46 48 52 49 48 50 48 43 38 34 33 33 33 33 34 37 43 54 59 58 59 64 67 67 68 67 68 74 80 80 72 62 53 50 52 56 62 69 71 68 65 65 65 63 61 63 70 75 79
60 49 40 35 37 40 41 38 35 33 31 34 39 42 38 30 23 19 17 15 15 16 16 18 26 37 45 50 52 54 58 60 61 66 67 56 45 47 51 48 44 44 44 42 40 36 34 34 35 36 40 48 61 75 79 73 67 63 61 61 65 65 63 66 75 78 75 71 69 68 67 67 69 73 74 70 64 59 57 59 64 73 84 91 92
75 72 65 57 53 52 51 49 46 41 37 37 42 48 49 43 35 29 23 18 16 17 18 21 31 44 53 57 58 57 57 58 59 63 65 58 49 47 50 49 46 46 45 44 41 38 36 36 40 45 50 59 73 90 97 89 79 74 69 66 66 64 63 69 80 81 74 72 78 84 85 83 79 75 72 70 70 68 69 72 77 83 91 98 100
70 70 70 71 69 67 65 61 55 50 46 42 41 42 44 43 41 38 34 29 24 21 21 28 42 55 60 63 64 61 58 57 62 67 68 61 53 51 53 52 53 55 53 47 41 39 38 40 48 57 63 69 81 93 95 89 88 92 88 77 71 73 75 76 79 80 80 84 91 93 92 91 89 84 79 80 84 86 87 88 90 92 96 99 98
67 66 70 74 78 80 79 73 63 56 53 51 50 48 45 42 39 37 36 36 33 28 27 37 55 66 67 64 64 64 60 60 66 72 70 63 59 60 60 58 59 62 60 51 45 45 45 48 56 66 71 75 81 86 86 88 97 102 95 86 89 95 92 85 85 90 92 90 90 90 91 94 97 95 91 90 92 93 95 97 99 98 96 92 87
65 66 72 78 81 84 85 81 73 66 59 53 52 53 53 50 46 42 41 42 42 40 41 51 63 68 64 61 66 71 71 70 73 77 75 70 68 67 65 62 64 72 75 69 61 57 57 61 68 74 76 77 81 82 82 87 96 102 101 98 96 90 82 82 92 100 95 86 84 87 90 94 96 97 96 96 96 97 100 100 98 94 87 81 79
69 70 77 84 87 87 87 88 88 85 76 63 53 52 54 57 59 59 59 60 61 62 63 66 68 69 69 71 79 86 86 82 81 83 83 78 72 72 73 72 69 73 80 82 78 73 73 77 80 80 80 83 87 85 81 82 90 97 98 90 77 69 73 85 95 98 95 93 93 93 93 95 98 99 99 100 99 97 96 95 93 89 84 79 78
82 81 82 86 91 94 94 93 96 99 97 86 71 61 58 60 64 68 72 74 74 73 71 69 71 77 84 87 90 93 93 87 84 87 90 86 75 70 75 78 74 72 77 81 80 78 78 80 82 80 76 75 79 82 83 84 87 87 79 66 59 67 85 97 100 99 99 100 99 97 97 99 100 100 99 100 99 95 90 88 87 86 84 83 84
87 87 85 86 92 98 100 98 97 99 98 91 79 69 64 63 66 71 75 76 77 78 79 76 77 84 91 91 88 89 92 91 89 90 95 95 85 73 69 73 76 78 79 79 76 75 76 79 81 76 66 62 72 85 91 89 82 74 65 62 67 79 92 98 100 100 101 101 100 100 100 100 100 100 100 100 99 95 90 86 85 85 84 85 86
Wind_Speed
30 29 29 27 27 26 26 25 24 24 25 25 26 26 25 25 24 24 24 24 23 22 20 19 19 19 19 18 17 16 15 15 15 15 15 14 14 14 13 12 11 10 8 7 5 5 5 7 8 8 9 10 11 12 13 13 13 13 13 11 10 10 9 8 7 7 7 7 6 6 6 6 7 7 6 6 7 8 8 9 9 11 12 13 12
31 31 30 29 28 27 27 26 26 25 25 26 26 26 26 25 25 25 26 25 25 24 23 21 21 21 20 20 19 17 16 16 16 16 16 16 16 16 15 14 13 12 11 9 7 7 7 8 8 8 9 12 13 13 13 13 12 12 12 11 11 10 9 9 8 8 8 7 6 7 7 8 9 8 5 5 7 7 8 8 9 10 12 12 12
32 32 31 31 30 29 28 28 28 27 27 26 26 26 26 26 26 26 26 26 27 26 25 24 24 23 22 22 21 20 18 17 17 18 17 17 17 17 16 15 15 14 13 11 10 10 9 10 10 10 11 13 14 15 15 14 13 12 12 12 11 11 10 10 10 9 8 8 8 9 9 9 9 8 6 6 7 7 7 8 8 10 11 11 12
32 33 33 32 32 31 30 30 30 30 29 27 26 26 27 27 27 27 26 27 28 28 27 27 26 25 25 24 23 23 21 20 19 19 18 18 18 18 17 17 16 16 15 14 14 13 12 12 12 13 13 13 14 15 15 15 14 13 13 13 12 12 12 12 12 11 10 8 9 11 11 11 11 9 6 6 7 7 7 8 8 9 11 11 12
33 34 34 34 34 34 32 31 31 31 30 29 27 27 27 28 29 28 28 28 28 28 28 28 28 28 27 26 25 25 24 23 21 20 20 19 19 19 19 18 17 17 17 17 17 17 16 15 15 15 16 15 15 16 16 16 15 15 14 14 14 14 15 14 14 13 12 10 10 12 13 12 11 10 8 7 8 8 8 8 9 10 11 11 12
31 34 35 35 35 35 34 33 33 32 31 30 29 28 28 28 29 29 29 29 29 28 29 29 29 29 27 27 26 26 26 25 24 23 22 21 21 21 21 20 19 19 19 19 19 19 19 18 18 18 18 17 17 18 18 18 18 17 17 17 17 17 17 16 16 15 14 13 12 12 13 13 11 11 11 9 8 8 7 7 9 11 11 12 12
29 32 35 37 37 36 36 35 34 33 32 32 31 30 30 30 30 30 30 30 30 30 30 29 29 28 28 27 27 26 27 27 26 25 24 23 22 22 22 22 21 20 20 20 20 21 21 20 20 21 20 20 19 20 20 20 21 20 20 20 20 20 19 19 18 17 16 15 14 13 14 13 12 12 13 11 9 9 8 7 9 11 12 13 13
30 30 33 36 37 37 37 36 35 35 34 33 33 32 32 31 31 31 30 31 31 31 30 30 29 29 28 28 27 27 27 28 28 27 26 25 24 24 23 23 23 22 22 21 21 22 23 22 22 22 22 22 22 22 22 23 23 23 23 23 23 23 22 21 21 20 19 18 17 16 15 13 13 14 15 13 10 9 9 9 9 11 13 16 16
34 32 31 33 36 37 37 37 37 36 36 36 35 34 34 33 33 32 32 32 32 32 31 31 31 31 30 29 28 28 28 28 28 28 27 27 26 25 24 24 24 24 23 22 22 23 23 23 23 23 23 23 24 24 25 25 26 25 25 25 25 25 25 24 23 23 22 21 19 18 16 14 15 16 17 15 12 10 10 10 10 11 12 16 19
39 37 34 31 31 33 35 37 38 37 37 37 35 35 34 35 35 34 34 34 33 33 33 32 32 32 31 31 30 29 29 29 28 28 28 28 28 27 26 26 25 24 24 24 24 23 23 23 22 22 23 24 25 25 26 27 28 28 27 27 27 27 27 27 26 25 24 23 21 20 18 15 16 19 19 17 14 12 11 11 11 11 11 13 17
35 36 36 34 31 30 32 35 38 39 39 38 37 36 36 35 36 36 36 36 35 34 34 34 34 33 32 32 31 30 29 28 28 28 29 29 29 29 28 28 27 27 26 25 25 24 24 24 23 23 23 23 24 25 26 27 28 28 29 29 29 29 29 29 28 26 26 25 23 22 19 17 18 21 22 20 16 14 13 13 12 13 12 13 16
31 32 35 37 35 33 32 33 35 37 38 39 38 38 38 37 37 37 37 37 36 35 35 35 34 34 33 33 32 31 29 28 27 28 28 29 30 30 29 29 29 29 29 28 27 25 25 25 25 25 24 24 23 24 24 25 25 26 27 28 30 30 31 30 29 28 27 27 25 23 21 19 20 22 23 21 18 15 15 15 14 14 15 15 18
32 30 30 33 34 33 33 33 32 32 33 36 37 37 38 38 38 37 37 37 37 37 36 36 35 34 34 33 32 31 29 28 27 27 28 28 29 30 30 30 29 30 30 30 29 28 27 26 26 26 26 25 25 24 24 23 23 23 24 25 27 28 30 30 30 29 28 28 27 24 22 22 22 23 24 23 19 17 17 17 16 16 16 17 19
31 29 28 26 27 31 34 33 30 28 29 32 35 36 37 37 37 37 37 37 38 37 37 36 35 35 34 33 32 31 30 28 28 27 27 27 28 29 30 30 29 29 30 30 30 30 29 28 27 27 26 26 26 25 24 23 23 23 23 23 23 24 26 28 28 28 27 27 27 25 24 24 24 23 25 24 20 18 19 18 17 17 18 18 20
29 30 27 23 22 27 32 33 29 27 27 29 31 33 34 35 36 37 37 38 38 37 36 36 35 35 34 34 33 32 30 29 28 28 28 27 27 29 30 30 30 30 29 30 30 30 30 29 29 28 27 27 26 26 25 24 24 24 23 23 23 22 23 24 25 26 26 26 26 25 25 25 25 24 25 24 21 20 20 20 18 18 20 19 19
27 28 26 22 20 23 29 32 31 30 29 29 30 31 31 32 33 34 35 36 37 37 36 35 35 34 34 34 33 32 30 29 29 28 28 27 27 28 30 31 31 31 30 30 30 30 30 30 30 29 28 27 27 26 25 25 25 25 24 24 23 22 22 22 23 24 25 26 26 25 25 25 26 25 24 23 22 22 22 21 18 20 22 21 20
26 26 25 24 22 22 25 30 31 32 33 33 32 32 30 29 30 31 33 35 36 36 36 34 34 33 33 33 32 31 28 27 28 28 28 28 28 29 30 31 31 32 31 30 30 30 30 30 30 30 29 28 27 25 25 26 26 25 25 24 24 23 22 21 23 24 25 26 26 25 24 24 25 25 24 24 23 24 23 21 19 21 23 22 22
26 26 25 23 23 24 26 29 30 32 35 35 34 32 31 30 29 30 31 33 34 35 36 35 34 33 32 31 30 29 28 26 26 27 27 28 29 30 30 31 31 32 32 31 31 30 29 29 30 30 29 28 26 25 25 27 27 26 26 25 26 24 21 20 22 25 26 27 26 25 23 23 24 25 25 25 24 24 24 22 21 23 24 23 24
28 28 26 25 25 26 28 29 31 34 36 35 34 33 32 31 30 31 31 31 32 33 35 36 35 32 31 30 29 29 27 26 26 26 27 29 30 31 31 32 32 32 32 32 31 31 29 28 29 29 28 27 26 25 26 27 28 28 27 28 28 24 20 20 23 25 26 27 27 25 23 22 23 25 26 25 25 24 24 23 24 25 24 25 26
29 29 28 28 28 28 29 31 32 34 35 34 33 33 33 33 32 32 32 31 31 32 34 35 35 33 31 30 29 28 27 26 25 25 26 28 30 31 33 33 33 32 31 30 30 30 29 27 27 27 27 26 25 25 26 27 28 28 28 30 29 24 20 22 25 26 26 27 27 26 24 23 24 25 25 26 26 25 26 26 26 26 26 27 28
30 30 29 30 31 32 31 32 33 33 34 35 34 34 34 35 34 34 33 32 32 33 34 35 35 34 33 32 30 29 27 26 25 24 25 27 29 31 33 34 33 32 31 30 30 29 28 26 26 25 25 25 25 26 26 27 28 29 30 31 29 25 24 27 28 27 27 27 26 26 25 24 25 25 25 25 26 26 27 28 28 28 28 28 29
30 31 31 31 33 34 33 33 33 33 34 36 36 35 34 35 35 35 34 33 33 34 35 36 36 36 35 33 32 30 28 27 25 25 25 26 28 30 32 33 33 33 33 33 31 30 28 27 27 26 25 25 25 26 27 27 29 30 30 30 29 28 29 30 29 29 29 27 26 26 25 25 25 25 25 25 27 28 29 29 29 29 29 29 29
30 31 32 31 32 33 34 35 34 34 33 35 36 34 33 33 35 36 36 35 34 35 36 36 37 37 36 35 33 31 29 28 27 26 26 27 28 29 30 31 32 33 34 35 33 31 30 29 29 28 28 27 27 27 28 29 30 31 30 30 30 30 32 32 31 30 29 28 27 26 24 24 25 26 26 27 29 30 31 30 29 29 28 28 29
31 32 32 31 31 33 35 35 34 32 32 32 34 34 32 31 33 35 37 37 36 36 36 37 37 37 37 35 33 31 30 29 28 28 28 28 28 29 30 30 31 32 34 34 34 33 32 31 31 30 30 30 29 30 31 32 31 31 30 31 31 31 32 33 31 30 29 28 27 25 24 24 25 25 27 29 31 31 30 30 29 28 28 28 29
31 32 32 32 32 33 34 35 34 31 31 32 34 34 33 32 31 32 35 38 39 39 38 38 38 38 38 37 34 32 31 30 29 29 29 29 29 29 30 31 31 32 34 33 33 32 31 32 32 32 32 32 33 34 34 34 33 31 31 31 31 31 32 31 30 29 28 27 25 24 23 23 24 26 28 30 31 31 30 29 28 28 28 28 28
30 31 32 33 33 34 35 35 34 33 33 33 34 36 36 35 33 33 34 36 39 40 40 40 40 39 39 38 36 34 32 31 30 30 30 30 30 30 30 31 32 33 34 33 32 31 31 31 33 34 35 35 36 37 36 35 33 32 32 31 31 31 30 29 29 28 27 26 25 24 23 23 25 28 29 29 30 30 29 29 28 27 26 27 28
30 31 32 33 34 34 35 35 34 33 34 35 35 38 40 39 38 36 36 37 38 39 40 41 41 40 40 40 39 37 36 34 32 31 31 31 31 30 31 31 31 33 33 31 30 29 29 30 32 34 36 37 38 38 37 36 34 33 32 30 29 29 29 29 29 29 28 27 26 25 24 25 28 29 29 29 30 30 29 28 27 26 26 27 28
30 31 32 33 33 33 35 35 34 33 34 35 36 39 43 43 41 39 39 39 39 38 39 40 41 41 41 40 40 40 40 37 33 32 32 33 32 31 31 31 31 31 29 28 28 28 28 29 30 32 35 37 38 38 37 36 34 33 32 30 29 29 29 29 30 30 29 28 27 27 27 28 30 30 30 31 31 30 29 27 26 27 27 28 28
30 31 32 32 32 33 34 36 36 34 34 35 36 40 43 44 42 40 40 40 39 38 38 38 40 40 40 40 40 42 42 39 36 35 37 36 33 32 31 30 30 30 28 27 28 29 29 30 30 31 32 34 35 36 36 36 35 34 33 31 30 30 30 31 31 30 30 29 29 30 30 32 32 32 32 32 31 30 29 27 26 27 28 27 27
31 31 31 32 32 32 33 35 36 36 35 34 36 38 41 42 41 40 40 40 39 38 37 37 37 38 39 40 41 42 42 40 38 39 39 37 34 33 32 31 30 30 29 29 30 31 31 31 31 30 31 32 33 33 34 34 35 35 33 32 32 32 32 32 32 32 31 32 32 32 33 34 34 33 33 33 31 30 29 27 26 27 27 27 27
35 33 32 32 33 33 33 34 35 36 35 35 35 36 37 38 38 37 37 38 37 36 35 35 35 36 38 40 41 42 43 42 40 40 40 39 37 36 34 33 32 31 31 31 32 33 33 33 33 32 31 31 32 32 32 33 34 34 33 32 33 33 33 33 33 34 34 34 33 34 35 35 36 36 34 32 30 30 29 26 25 26 26 26 26
39 37 34 33 34 34 34 34 35 35 35 36 36 36 36 36 34 33 33 34 35 34 33 32 33 34 36 37 38 39 40 39 39 39 39 39 40 39 37 35 33 33 33 34 35 35 35 35 35 35 34 33 33 32 32 33 32 31 31 31 32 33 33 33 33 34 35 35 35 36 37 38 39 38 35 31 30 31 28 25 25 26 26 26 25
44 42 38 34 34 35 35 35 36 36 36 35 35 35 35 35 33 32 31 31 32 32 32 31 31 32 33 32 31 31 32 31 32 34 36 37 38 40 39 37 36 36 37 38 39 39 38 37 37 36 36 36 35 34 34 33 31 30 31 31 32 32 32 32 33 34 35 36 36 38 39 40 39 36 32 30 30 29 26 25 26 27 27 26 26
46 45 43 39 35 35 36 36 36 37 37 36 35 35 35 35 34 32 30 29 30 31 32 31 31 30 30 28 26 25 26 26 27 28 31 34 36 38 39 39 39 40 41 42 43 42 41 40 39 39 38 38 37 37 36 34 32 31 31 31 31 31 31 32 33 34 35 36 37 39 41 43 41 36 32 31 30 27 27 27 27 28 27 26 25
47 46 47 44 39 36 36 37 36 37 38 38 37 35 34 34 35 34 32 30 29 29 30 31 31 30 30 30 28 26 25 25 25 25 27 30 33 35 37 40 42 43 43 44 46 46 44 43 42 40 39 39 38 38 38 35 32 31 31 31 32 33 33 33 33 34 35 36 37 40 43 46 44 39 35 32 29 27 27 28 28 28 28 27 25
50 48 49 48 43 38 37 38 38 38 38 39 38 36 34 34 34 35 34 32 31 31 31 31 31 31 31 31 31 29 27 27 26 27 28 29 30 32 35 38 41 44 45 46 47 47 46 45 43 41 41 40 39 38 36 34 32 32 33 34 35 35 33 33 33 34 35 34 34 37 40 41 40 38 36 32 29 27 27 28 28 28 28 26 26
51 49 50 51 48 42 39 39 39 38 39 40 39 38 36 35 34 35 35 35 34 34 33 33 33 33 32 33 33 33 32 31 29 29 30 30 31 32 34 36 40 44 46 47 48 49 48 46 44 42 42 40 38 36 35 34 34 35 36 36 36 35 34 33 33 34 34 32 31 35 37 36 35 36 34 30 27 27 28 28 29 28 27 27 28
50 49 50 52 52 46 41 40 40 40 40 40 40 39 38 37 36 36 36 37 37 36 36 36 36 35 35 36 37 37 37 36 34 32 31 32 33 33 34 35 38 43 46 47 47 48 49 47 45 44 43 41 38 36 36 36 36 37 38 38 37 35 35 34 34 34 34 32 31 34 35 33 34 34 31 28 28 28 28 28 29 28 28 29 30
47 48 48 52 55 51 45 42 41 41 41 41 41 40 40 40 39 39 39 40 40 41 41 41 40 37 36 37 39 41 42 42 40 36 34 33 34 34 34 36 39 42 45 46 47 47 48 48 47 45 44 42 40 38 38 38 38 39 39 40 38 36 35 34 33 33 33 32 31 32 32 32 33 32 29 28 29 29 28 28 29 30 30 31 32
45 45 46 49 54 54 50 45 43 42 43 43 43 43 42 42 41 42 42 43 44 44 45 44 42 39 36 35 38 41 44 45 43 38 35 35 35 34 35 37 39 41 44 45 45 45 46 47 46 46 46 44 42 40 40 39 40 40 40 39 38 37 35 33 32 32 31 31 31 31 31 32 33 32 29 29 29 29 29 31 32 33 33 34 34
43 44 44 46 50 53 51 47 44 42 43 45 46 46 44 42 42 43 44 45 45 45 45 44 40 37 36 36 37 39 42 44 44 41 38 38 38 36 35 37 39 41 44 45 45 44 45 46 47 48 48 46 42 41 41 42 41 40 39 39 39 38 36 34 32 32 31 30 30 31 32 34 34 31 29 29 30 29 30 32 33 34 35 35 35
41 42 42 43 46 48 48 47 44 42 42 44 46 46 44 42 42 43 44 45 45 45 45 43 40 38 38 38 39 40 42 44 45 44 42 41 40 39 37 38 40 42 45 46 46 45 46 47 48 48 48 46 43 41 41 40 38 37 38 39 39 37 36 34 33 32 31 30 29 30 31 32 31 29 29 30 31 32 33 35 35 35 36 36 36
37 40 40 41 41 42 42 42 41 41 40 41 41 41 41 41 42 43 43 44 44 45 45 44 43 42 41 40 41 43 44 45 46 45 43 43 43 42 40 41 43 45 47 47 47 46 47 47 48 48 47 46 44 41 38 36 36 37 38 37 35 34 34 35 34 33 32 30 29 29 30 31 31 30 31 33 34 35 36 36 36 35 35 36 36
30 33 35 37 37 36 35 35 36 37 38 38 36 35 35 37 40 43 44 44 45 47 47 46 46 45 44 43 43 44 46 47 47 46 45 45 45 45 44 44 46 47 48 48 46 46 46 46 46 47 46 45 44 41 36 32 33 34 34 33 32 33 34 35 35 34 32 30 28 28 28 29 30 32 33 33 34 35 34 34 33 34 35 35 36
26 28 30 32 32 32 30 30 30 32 34 36 37 36 34 34 37 41 44 47 48 49 49 49 48 48 47 46 46 46 47 48 48 47 46 46 46 46 46 46 46 47 47 46 45 44 45 45 45 45 45 43 44 43 37 31 28 29 30 33 36 36 34 34 34 33 33 33 30 27 26 26 27 29 31 31 31 31 32 32 33 35 35 36 36
28 28 29 29 29 28 26 25 25 26 28 31 35 37 38 36 36 38 42 46 49 50 50 50 50 48 47 47 46 45 46 47 47 46 46 46 46 45 46 47 47 45 44 43 43 44 45 45 45 44 43 42 43 42 39 34 30 29 30 33 35 33 28 28 29 32 34 33 29 24 24 24 24 24 26 27 27 28 30 33 35 35 35 34 34
28 28 28 28 27 25 23 23 24 24 23 24 27 32 35 36 37 37 39 42 47 50 50 50 49 46 45 45 46 46 45 45 45 45 46 47 46 45 44 45 45 43 42 42 44 44 43 44 44 42 42 42 42 40 37 34 33 32 29 26 25 23 21 24 29 32 33 30 24 22 23 23 22 22 24 26 28 30 32 34 35 35 34 33 33
25 25 26 26 26 23 21 21 23 24 24 23 23 26 30 34 36 39 40 42 45 48 49 49 47 44 43 44 45 45 45 44 44 45 46 46 45 43 42 43 44 43 41 42 42 41 40 41 42 40 39 40 41 39 37 36 37 36 31 26 23 23 24 26 29 30 28 26 24 24 24 24 24 25 27 29 31 32 33 34 34 34 34 34 34
21 22 23 24 23 21 19 19 20 21 23 23 23 24 27 30 32 35 38 41 43 44 45 43 42 40 40 42 43 43 42 41 42 46 48 47 44 42 42 41 41 41 41 41 39 38 38 39 39 37 35 37 39 39 37 35 35 34 30 28 27 26 26 28 29 29 26 25 26 26 27 28 28 28 29 31 32 33 33 34 34 34 35 35 35
17 19 21 23 21 17 16 18 19 18 19 20 19 20 23 26 27 30 33 36 38 39 38 37 35 34 35 37 38 37 36 37 40 44 47 45 41 40 41 41 39 39 40 38 36 34 34 36 36 34 33 35 39 40 37 33 31 30 29 29 28 27 28 31 33 31 28 26 25 25 27 28 27 27 27 29 30 31 32 33 33 33 34 33 33
15 17 19 21 20 16 14 16 19 19 19 19 19 20 20 21 22 25 28 31 32 33 33 32 32 32 33 35 35 33 33 34 36 39 42 41 38 37 39 39 38 38 39 36 33 31 32 34 34 34 35 37 37 34 30 27 26 27 28 29 29 29 30 31 31 29 26 23 22 23 26 27 27 27 28 30 31 33 34 34 33 33 33 33 33
Wind_Direction
220 222 222 221 220 220 221 220 218 217 216 216 217 219 222 220 218 219 222 226 230 232 232 232 234 237 240 242 243 242 239 234 231 226 221 219 218 217 218 219 221 224 223 219 216 207 192 181 176 174 173 173 177 182 181 175 171 168 169 173 180 186 193 200 211 226 231 233 246 259 272 304 321 328 336 343 355 6 5 2 1 352 343 340 342
219 221 222 223 222 221 222 222 221 219 217 217 216 217 220 222 221 221 222 224 228 232 234 235 236 238 241 244 246 246 245 242 239 234 228 224 223 222 221 221 224 227 226 221 217 215 208 196 189 189 187 184 186 189 191 188 185 184 185 189 195 200 207 215 223 237 242 242 255 275 291 310 319 319 321 331 344 351 348 345 347 342 334 333 338
220 221 222 223 222 221 222 223 224 223 220 217 216 216 218 221 223 223 222 223 226 230 233 235 237 239 241 243 247 248 247 245 245 241 236 231 229 228 226 224 225 229 230 227 224 220 216 209 204 204 201 196 195 196 197 198 199 201 203 205 210 215 221 226 232 239 245 254 268 280 293 307 311 307 306 318 328 332 331 331 334 331 324 326 336
219 221 222 222 223 222 221 222 224 226 224 219 215 215 216 219 222 223 223 222 224 227 230 233 236 238 239 240 243 247 247 246 245 245 242 239 236 235 232 228 226 228 230 230 229 227 222 217 215 216 213 208 207 207 206 207 209 213 217 220 224 229 231 234 239 243 244 254 270 281 291 301 303 296 293 303 310 311 317 320 321 321 318 323 334
219 221 222 222 222 222 221 220 222 225 226 223 219 215 215 217 220 221 222 223 224 226 228 231 234 236 238 238 240 243 246 247 245 244 244 243 241 240 238 235 230 229 230 231 232 232 228 224 223 224 222 216 215 217 218 219 220 223 227 231 234 236 238 240 244 247 245 247 259 273 284 291 289 280 275 280 287 296 307 312 309 312 316 322 330
220 221 223 223 223 222 222 221 220 222 224 224 222 219 217 217 218 220 221 222 224 226 228 230 233 234 236 237 238 240 243 246 246 245 244 244 243 242 241 239 235 232 232 233 235 236 234 231 229 231 230 224 221 223 226 228 229 231 234 237 240 241 243 245 247 248 247 248 255 265 274 280 273 262 264 269 272 278 288 300 303 303 308 317 325
224 223 223 225 224 223 223 223 222 222 223 223 223 222 221 220 220 220 221 223 223 225 227 230 233 235 236 236 237 238 240 243 246 246 245 243 244 243 242 242 239 237 236 236 238 239 238 236 235 235 236 233 229 229 231 233 234 236 237 240 243 244 246 247 249 250 250 251 257 261 264 267 258 250 258 268 272 273 270 277 293 300 302 305 312
231 226 224 224 227 227 225 225 225 224 225 224 224 224 223 223 222 222 222 224 224 225 227 229 232 235 236 236 237 237 239 241 243 245 245 244 244 244 243 243 242 241 240 240 241 241 240 239 239 239 240 240 238 237 237 238 238 239 240 242 244 246 248 249 251 252 253 254 258 259 258 258 249 244 253 262 266 270 270 270 281 294 300 299 301
241 236 231 227 227 229 229 228 228 227 227 227 226 225 225 225 225 224 224 225 225 226 227 228 231 233 236 237 237 237 238 239 242 244 245 245 245 245 245 245 245 244 244 244 244 244 242 241 241 242 243 244 244 244 243 244 244 243 244 245 247 249 251 252 253 254 255 255 256 257 256 252 245 243 251 258 260 261 264 268 275 286 299 302 299
246 244 240 234 229 229 232 233 232 231 230 230 229 228 228 228 227 226 226 226 226 226 227 228 230 232 234 236 237 238 237 237 239 242 245 246 246 246 245 246 246 246 246 246 246 247 246 245 244 243 244 245 246 247 247 248 249 248 248 249 251 252 253 254 255 256 257 257 256 256 253 247 242 244 249 255 258 260 261 265 272 281 295 305 302
248 248 245 240 235 231 231 232 233 234 233 232 232 231 231 231 231 229 228 228 228 228 228 229 230 232 234 235 237 238 237 236 237 239 243 246 248 248 247 247 247 248 248 248 248 248 249 250 250 249 248 248 249 249 249 250 250 251 251 252 252 253 254 254 255 256 257 258 257 256 253 245 239 244 250 252 256 261 263 266 272 279 290 301 304
240 245 249 251 248 242 237 234 233 234 236 236 236 236 234 234 234 233 232 231 230 230 229 230 231 232 234 236 237 238 236 235 235 237 239 242 246 249 250 249 249 249 250 250 250 250 249 250 252 253 253 254 254 253 252 251 251 251 252 252 252 253 253 254 255 256 257 258 257 255 253 246 238 241 249 252 253 258 264 268 273 281 292 301 304
242 240 247 257 259 252 247 244 238 234 238 239 239 240 239 238 237 237 236 235 233 233 232 232 231 232 234 236 237 238 236 234 234 235 236 239 243 248 250 251 250 250 251 252 252 252 251 250 251 252 254 256 257 257 256 255 254 253 253 252 252 253 253 253 254 254 255 256 256 254 252 248 240 239 245 250 252 256 262 266 272 281 291 299 304
252 244 241 249 256 252 249 248 242 234 234 239 241 242 242 241 241 241 240 239 237 236 235 234 234 233 234 236 237 238 237 235 234 235 236 237 240 245 249 251 251 250 250 251 252 252 252 251 251 251 252 255 257 258 259 258 257 256 255 255 254 253 253 252 253 253 254 255 256 253 249 247 243 238 242 249 252 256 260 263 269 277 284 292 301
249 248 244 244 248 247 243 241 238 234 233 236 239 242 244 244 243 242 243 243 242 240 238 237 237 236 236 237 237 238 237 236 235 234 235 236 238 242 246 249 250 249 249 249 251 252 253 253 252 251 251 253 255 257 259 259 258 257 257 258 258 256 255 253 252 252 254 255 255 251 247 245 243 239 240 247 253 257 260 262 267 274 278 286 298
245 247 245 241 239 238 238 236 234 234 234 233 234 239 244 247 245 243 244 245 245 244 242 240 239 239 238 238 239 239 237 236 235 234 234 234 236 239 242 246 248 248 248 249 250 251 253 254 254 254 253 253 254 256 258 258 257 256 256 258 259 259 259 258 256 255 255 255 254 252 247 244 242 240 241 245 252 257 260 264 272 277 277 285 298
244 245 244 247 245 234 229 229 228 230 233 233 233 238 243 245 244 242 243 245 246 247 246 245 244 242 241 241 241 241 239 237 236 233 232 232 234 237 240 243 246 248 249 249 250 251 252 253 254 255 254 254 255 256 258 259 258 257 256 257 257 258 258 258 258 257 257 256 255 252 248 243 240 240 242 245 250 256 260 266 276 279 280 288 297
241 242 241 247 247 230 220 222 224 226 231 232 233 238 242 243 242 240 241 244 247 248 248 248 247 245 244 243 244 245 243 240 238 234 231 231 232 235 238 241 244 246 248 249 250 251 251 251 252 253 253 254 255 255 256 258 260 260 259 258 258 257 256 255 254 255 256 256 256 254 250 244 239 240 242 247 251 256 260 266 274 278 282 289 293
240 241 236 236 236 227 221 223 224 225 228 231 234 238 241 241 239 237 238 241 245 248 249 249 248 246 245 245 245 245 245 243 240 236 231 230 231 233 236 240 243 246 248 249 250 250 250 250 249 250 251 252 252 253 253 255 258 261 262 261 259 258 257 253 251 251 252 254 256 255 251 246 241 240 243 248 254 258 262 267 273 277 282 286 287
239 238 231 227 228 229 229 228 227 225 226 231 236 239 240 240 238 235 235 238 244 248 249 249 248 246 245 244 244 244 245 244 242 239 234 231 231 232 235 238 242 245 247 249 249 249 249 248 247 248 249 249 248 249 250 252 255 258 259 260 261 261 257 252 250 249 250 252 255 255 251 247 243 243 245 249 254 259 263 268 273 276 280 282 283
235 233 228 223 225 231 235 235 234 230 227 231 237 239 239 240 238 235 235 237 242 247 249 249 248 247 246 244 243 243 243 244 243 241 238 235 234 233 235 238 241 243 246 247 247 247 248 247 247 246 247 247 246 246 247 249 251 252 254 257 261 261 255 251 251 251 251 252 254 255 253 249 247 247 248 252 256 260 263 267 270 272 275 277 280
232 232 230 227 227 233 238 240 241 239 233 233 237 239 238 239 239 237 235 236 240 244 247 248 249 249 248 246 244 242 242 242 242 242 240 238 237 237 238 239 241 242 245 246 246 247 247 248 248 246 245 245 243 243 244 245 247 248 250 254 257 257 255 253 252 252 254 254 255 254 253 251 250 251 252 255 257 259 261 264 267 269 272 275 278
232 234 234 233 233 235 240 241 241 240 238 238 241 242 240 240 240 239 236 236 238 242 245 247 249 250 249 247 245 243 242 241 240 240 240 240 239 240 240 241 242 243 245 248 248 249 249 249 248 246 245 244 243 242 243 244 246 247 249 251 253 254 255 255 254 254 255 255 255 254 253 251 251 252 253 254 256 258 260 263 266 269 271 273 276
232 234 235 237 236 237 242 244 242 240 240 242 246 249 247 244 242 241 238 236 237 240 243 245 247 249 249 248 247 244 243 242 240 240 240 240 241 241 242 242 243 244 247 249 250 250 250 250 249 248 246 246 245 244 244 244 245 246 248 249 250 252 254 256 257 258 257 256 256 256 254 252 252 252 253 254 256 258 260 263 266 268 271 274 277
232 234 236 239 239 240 244 247 247 247 247 246 248 252 253 251 248 244 240 238 238 240 242 243 245 247 249 249 248 246 244 243 241 240 240 240 240 241 242 243 244 245 248 250 250 250 250 250 249 248 247 247 246 245 245 246 246 247 248 248 249 251 254 256 258 259 258 258 257 256 254 253 253 253 253 254 256 259 261 263 267 270 273 276 280
233 235 238 240 242 244 246 247 250 252 252 251 248 249 252 256 257 254 248 243 241 242 243 243 244 246 248 249 249 248 246 244 241 240 239 239 239 239 241 243 244 246 248 251 251 250 249 248 247 246 246 246 245 246 247 249 249 249 249 249 249 250 253 256 257 257 258 257 256 255 252 251 251 251 253 255 258 261 264 268 271 273 275 277 280
232 234 237 240 242 245 247 250 251 250 251 253 251 248 250 255 260 261 257 250 245 244 245 245 245 246 248 249 250 249 248 246 243 241 240 238 238 239 240 241 243 245 249 252 253 252 251 251 249 247 245 245 245 247 249 251 251 252 251 250 250 250 251 252 253 254 254 254 253 253 252 251 252 253 256 259 261 264 267 270 272 274 276 278 281
235 233 235 238 240 242 245 249 251 250 249 252 252 251 252 255 260 261 260 256 251 246 245 245 246 247 248 249 250 250 249 247 245 244 243 243 242 241 241 241 243 245 250 254 255 253 252 252 251 248 246 245 246 248 250 252 252 252 252 252 251 250 250 250 251 252 253 254 255 255 254 255 255 257 259 260 261 263 265 268 270 273 276 279 283
241 236 236 238 239 239 242 246 250 251 250 250 249 250 252 256 259 261 260 258 254 251 248 246 245 246 248 249 250 250 251 249 247 246 247 247 245 244 242 242 243 245 248 251 253 252 251 251 252 250 248 246 246 248 249 250 251 251 251 252 252 252 252 252 252 253 254 255 255 255 255 256 256 257 258 259 260 262 264 266 269 272 275 279 282
248 242 240 241 240 238 240 243 247 250 251 251 250 249 251 254 258 260 259 257 254 253 252 248 244 243 245 247 249 251 253 253 251 250 249 248 246 245 243 241 242 243 243 245 248 249 249 250 250 250 248 246 246 246 247 248 249 249 249 250 251 252 253 254 255 255 256 255 255 255 255 255 255 255 255 257 259 261 263 265 268 272 276 279 281
257 249 245 244 243 242 241 243 246 249 250 252 253 252 253 255 257 258 258 255 253 253 252 249 245 244 244 246 248 250 251 253 253 253 251 249 247 246 243 240 239 239 239 241 243 245 247 248 248 248 248 247 247 247 247 247 247 247 248 248 250 252 254 255 256 257 257 256 255 255 255 255 254 254 254 255 259 261 263 266 270 273 276 279 282
262 256 251 249 247 245 244 245 247 250 251 252 253 255 256 258 259 259 256 253 251 250 250 248 247 245 244 245 247 248 250 253 256 258 256 253 250 247 244 241 238 237 237 238 240 242 244 246 246 246 246 247 247 248 248 249 249 248 248 248 249 251 253 255 256 257 257 256 255 254 253 254 254 252 250 250 253 257 262 267 270 271 273 276 278
265 260 256 255 252 248 247 246 247 251 253 254 255 257 259 261 262 262 260 256 252 250 249 248 247 246 246 249 252 255 257 259 262 263 263 260 255 250 246 242 239 237 235 236 238 239 241 243 246 247 246 246 247 248 249 251 250 248 247 247 249 251 252 254 254 255 256 256 256 254 254 254 254 252 250 249 250 254 260 265 267 268 270 273 275
265 260 257 258 257 253 250 249 249 251 254 256 257 258 260 262 264 265 266 265 262 259 257 254 251 248 247 249 254 259 263 266 267 266 266 264 259 254 248 242 239 237 236 236 238 239 239 242 245 247 247 247 247 247 249 250 249 247 247 249 253 256 257 256 255 255 256 259 261 262 263 263 261 258 256 254 252 255 260 263 264 267 269 272 274
264 260 256 257 260 258 254 251 251 253 255 257 258 258 260 262 264 265 267 267 267 267 265 262 259 254 248 246 249 255 263 268 269 265 264 263 260 255 249 243 238 236 236 238 240 240 239 242 245 246 246 246 246 246 248 249 249 249 251 256 260 260 258 256 254 254 255 258 262 266 268 268 266 262 259 257 255 256 260 263 265 267 269 272 274
262 260 255 254 257 260 258 254 253 254 256 258 259 260 260 262 264 266 267 267 266 267 265 263 262 260 254 250 250 253 259 265 266 263 260 260 259 256 250 243 238 237 238 240 243 242 241 242 244 245 245 245 245 247 248 248 249 251 256 260 262 260 257 255 254 254 254 255 260 265 267 267 266 262 258 257 257 258 260 263 265 265 268 273 278
260 258 254 252 253 258 261 259 256 255 257 259 261 262 262 262 264 265 265 264 264 266 267 266 264 261 258 256 256 256 258 260 263 264 262 260 260 259 252 244 239 239 240 242 244 244 244 243 244 244 245 245 246 247 247 246 248 252 256 258 258 257 257 254 252 250 250 251 256 261 262 263 265 263 259 257 259 260 260 261 262 265 270 276 281
258 257 253 250 250 254 260 261 259 258 259 259 261 262 263 264 264 264 264 264 264 266 268 269 267 263 260 259 258 257 257 257 259 262 263 260 258 257 253 245 240 240 242 243 244 245 245 245 245 245 245 245 244 244 244 245 248 252 255 256 253 252 254 254 251 248 246 246 249 254 257 260 263 262 258 255 256 257 258 260 263 267 273 278 282
255 255 253 249 247 250 256 261 261 261 261 261 261 261 262 263 263 264 265 266 266 266 267 268 267 265 264 261 256 253 254 256 257 260 262 261 257 253 248 243 240 241 243 244 245 246 247 246 246 246 245 244 242 243 245 248 252 255 257 255 250 248 249 250 249 248 248 248 250 253 255 255 254 251 247 246 250 254 258 261 265 269 274 278 281
254 255 255 250 247 248 254 258 260 260 261 263 263 261 260 260 260 260 261 263 264 264 265 266 266 264 263 261 256 251 252 255 258 259 261 261 258 252 246 241 240 241 243 244 245 246 247 247 246 245 244 244 244 245 248 251 256 259 259 254 250 248 248 247 246 247 248 250 252 252 249 246 245 244 245 248 253 258 260 262 265 269 273 276 279
254 255 256 253 250 250 254 258 259 258 260 263 265 263 261 258 256 256 257 259 260 261 261 263 263 260 256 256 254 252 252 255 257 259 259 257 254 251 247 244 242 242 242 243 244 244 245 246 246 246 246 247 248 249 252 254 257 258 256 251 247 245 244 244 244 245 246 248 250 247 242 239 241 245 249 254 257 260 261 262 265 270 275 277 278
256 256 256 255 253 253 254 256 257 257 258 261 262 262 259 255 253 253 253 255 256 257 257 258 258 254 252 252 252 251 252 254 256 257 258 256 253 249 245 242 240 241 241 241 241 242 244 246 248 249 252 253 252 250 251 253 253 251 248 247 248 248 246 244 244 244 244 245 244 242 238 237 239 244 251 256 260 262 264 266 269 273 276 277 275
262 261 258 256 255 254 254 253 254 255 256 257 256 255 253 250 249 249 250 251 252 253 254 255 254 252 251 251 251 252 253 254 254 256 257 255 252 248 243 239 237 238 239 240 240 242 244 247 250 252 255 257 255 251 246 244 245 244 244 245 245 244 244 244 244 244 243 240 237 235 232 232 235 241 248 253 256 258 261 264 267 269 270 270 269
267 266 264 260 257 256 255 253 253 253 253 252 250 248 246 244 243 243 245 247 248 250 251 252 252 251 250 249 249 251 253 254 255 256 256 254 251 247 243 238 236 237 239 240 241 243 245 248 251 254 257 260 261 258 253 246 239 237 241 244 240 237 239 242 242 241 241 240 237 234 231 230 234 239 243 247 251 254 256 259 261 262 263 264 264
265 267 267 265 262 260 258 257 256 255 254 252 249 246 244 243 242 241 241 242 245 247 248 248 248 249 250 250 249 249 250 252 254 254 254 252 249 246 243 239 237 238 240 241 242 244 246 248 252 254 256 257 259 263 268 263 245 233 237 243 240 237 239 241 241 244 246 244 238 235 236 236 239 242 245 249 252 254 255 256 257 258 258 259 261
261 264 267 268 268 267 265 262 260 258 256 253 249 247 246 245 244 244 242 242 242 244 245 246 247 248 250 250 250 249 249 250 250 251 251 249 247 244 242 241 240 240 241 242 242 244 246 249 252 254 255 255 258 264 272 273 262 254 251 243 233 230 236 243 247 250 247 238 230 232 239 243 246 251 256 258 258 257 258 259 258 257 257 258 260
256 259 261 264 265 267 267 266 263 259 255 249 244 242 241 241 241 243 244 243 243 242 243 244 246 248 249 250 250 249 247 247 247 248 249 248 246 243 242 243 243 243 241 241 242 244 247 250 252 252 254 257 260 264 269 271 271 272 269 254 240 242 253 256 254 251 242 233 234 244 250 251 256 262 265 265 263 260 258 257 255 255 256 256 257
251 253 254 255 257 259 261 264 265 263 258 253 245 239 236 235 235 237 240 242 242 241 242 243 246 248 249 248 247 246 246 246 247 248 248 248 246 245 242 241 242 242 241 241 243 246 249 252 254 253 255 258 261 263 266 267 266 267 270 270 269 271 270 264 257 250 241 238 245 254 258 263 266 265 263 262 259 256 255 255 255 255 255 255 254
247 247 245 244 247 250 251 252 255 256 256 255 250 242 238 237 237 238 241 242 243 243 244 245 246 247 247 247 247 248 248 248 249 250 250 247 244 244 244 241 239 240 241 242 244 247 250 253 258 259 258 259 262 263 263 261 258 260 266 273 274 271 270 267 263 256 248 246 252 261 269 273 268 261 258 258 257 256 257 256 255 254 253 252 253
236 240 238 234 233 236 238 237 235 235 238 244 246 242 239 239 240 241 242 243 243 243 243 244 244 245 244 243 243 245 247 248 248 252 253 248 242 241 244 242 238 240 244 243 242 244 248 253 259 261 261 263 265 263 258 254 256 260 265 267 266 266 268 267 262 256 251 250 255 265 272 271 264 259 260 262 262 262 262 260 257 255 255 256 258
221 228 230 227 223 220 221 225 227 228 229 235 241 243 241 240 242 243 243 244 245 243 241 240 240 239 238 239 240 241 243 244 244 248 254 253 245 239 241 240 238 240 243 242 240 243 248 252 256 258 260 263 265 261 253 252 258 263 263 262 262 261 260 260 260 263 268 271 273 277 279 278 275 274 274 273 272 271 269 266 264 263 263 264 266